Home > Weather > Goch > Past weeks

Flag for Germany Weather for the Past 2 Weeks in Goch, North Rhine-Westphalia, Germany

Now
48 °F

Clear.


Feels Like: 44 °F
Forecast: 44 / 50 °F
Wind: 10 mph from Southeast

Location: Niederrhein

Current Time: Feb 6, 2016 at 8:38:16 PM

Latest Report: Feb 6, 2016 at 7:50 PM


Visibility: 10 mi

Pressure: 29.62 "Hg

Humidity: 76%

Dew point: 41 °F

Location of GochLocation

Historic Weather in Goch — Graph

°F

Goch Temperature Yesterday

Maximum temperature yesterday: 52 °F (at 12:50 PM)
Minimum temperature yesterday: 41 °F (at 4:50 AM)
Average temperature yesterday: 48 °F

High & Low Weather Summary for the Past Weeks

 TemperatureHumidityPressure
High57 °F (Jan 25, 1:20 PM)100% (Jan 22, 10:20 PM)30.54 "Hg (Jan 22, 10:20 PM)
Low34 °F (Jan 22, 7:20 PM)54% (Jan 25, 7:20 PM)29.62 "Hg (Feb 6, 7:20 PM)
Average46 °F84%30.09 "Hg
* Reported Jan 22 7:20 PM — Feb 6 7:20 PM, Goch, Weather by CustomWeather, © 2016

Note: Actual official high and low records may vary slightly from our data, if they occured in-between our weather recording intervals... More about our weather records

Advertising

Goch Weather History for the Previous 24 Hours

 ConditionsComfort  
Time TempWeatherWind HumidityBarometerVisibility
7:20 PM
Sat, Feb 6
50 °FPassing clouds.10 mph71%29.62 "HgN/A
6:50 PM50 °FPassing clouds.12 mph71%29.65 "HgN/A
6:20 PM50 °FSunny.12 mph71%29.65 "Hg10 mi
5:50 PM50 °FSunny.12 mph71%29.68 "Hg10 mi
5:20 PM50 °FPassing clouds.10 mph71%29.68 "HgN/A
4:50 PM52 °FSunny.12 mph67%29.71 "Hg10 mi
4:20 PM52 °FPassing clouds.14 mph67%29.71 "HgN/A
3:50 PM52 °FPartly sunny.16 mph67%29.74 "HgN/A
3:20 PM52 °FPartly sunny.16 mph67%29.74 "HgN/A
2:50 PM52 °FPartly sunny.17 mph67%29.77 "HgN/A
2:20 PM52 °FPartly sunny.17 mph67%29.77 "HgN/A
1:50 PM50 °FPartly sunny.13 mph71%29.80 "HgN/A
1:20 PM50 °FPartly sunny.16 mph71%29.80 "HgN/A
12:50 PM50 °FPartly sunny.14 mph71%29.80 "HgN/A
12:20 PM50 °FBroken clouds.15 mph71%29.83 "HgN/A
11:50 AM50 °FPartly sunny.15 mph71%29.83 "HgN/A
11:20 AM50 °FPartly sunny.16 mph76%29.86 "HgN/A
10:50 AM50 °FPartly sunny.13 mph76%29.86 "HgN/A
10:20 AM50 °FPartly sunny.14 mph76%29.86 "HgN/A
9:50 AM48 °FPartly sunny.14 mph82%29.86 "HgN/A
9:20 AM48 °FPartly sunny.10 mph82%29.86 "HgN/A
8:50 AM48 °FPassing clouds.12 mph82%29.86 "HgN/A
8:20 AM48 °FPassing clouds.10 mph82%29.89 "HgN/A
7:50 AM48 °FPassing clouds.8 mph82%29.89 "HgN/A
7:20 AM48 °FPassing clouds.9 mph82%29.89 "HgN/A
6:50 AM46 °FPassing clouds.7 mph87%29.89 "HgN/A
6:20 AM46 °FPassing clouds.7 mph87%29.89 "HgN/A
5:50 AM46 °FPassing clouds.6 mph87%29.92 "HgN/A
4:50 AM48 °FPassing clouds.7 mph82%29.92 "HgN/A
11:50 PM
Fri, Feb 5
50 °FPassing clouds.8 mph88%30.04 "HgN/A
11:20 PM50 °FPassing clouds.8 mph88%30.04 "HgN/A
10:50 PM50 °FPassing clouds.8 mph88%30.07 "HgN/A
10:20 PM50 °FPassing clouds.8 mph88%30.07 "HgN/A
9:50 PM50 °FPassing clouds.9 mph88%30.07 "HgN/A
9:20 PM50 °FPassing clouds.9 mph88%30.09 "HgN/A
8:50 PM50 °FPassing clouds.8 mph94%30.09 "HgN/A
8:20 PM50 °FPassing clouds.8 mph94%30.09 "HgN/A
Weather by CustomWeather, © 2016

See weather overviewHow to use our weather pages